Location: Azul
(36.7830°S, 59.8500°W)
Time: 21:05:45
(UTC-03:00)

ISS - Pass Details

Date: 15 February 2020
Orbit: 415 x 422 km, 51.6° (Epoch: 27 February)

Event Time Altitude Azimuth Distance (km) Brightness Sun altitude
Rises 21:13:07 0° 310° (NW) 2,363 0.4 -15.0°
Reaches altitude 10° 21:15:13 10° 308° (NW) 1,505 -0.7 -15.4°
Maximum altitude 21:18:35 80° 222° (SW) 435 -3.7 -16.0°
Drops below altitude 10° 21:22:01 10° 133° (SE) 1,518 -1.1 -16.6°
Enters shadow 21:22:18 - 133° (SE) 1,638 -0.9 -16.6°
